| time (UTC) | temp F | wind direction | speed knots | gust knots | rain 1hr in | rain 24hr in | rain mn in | humidity % | barometer mb |
| 20260507081552 | 0 | 0.0 | 0.0 | 0.00 | 0.02 | 0.00 | 1016.8 | ||
| 20260507080047 | 0 | 0.0 | 0.0 | 0.00 | 0.02 | 0.00 | 1016.8 | ||
| 20260507074544 | 0 | 0.0 | 0.0 | 0.00 | 0.02 | 0.00 | 1016.8 | ||
| 20260507073042 | 0 | 0.0 | 0.0 | 0.00 | 0.02 | 0.00 | 1016.7 | ||
| 20260507071538 | 0 | 0.0 | 0.0 | 0.00 | 0.02 | 0.00 | 1016.8 | ||
| 20260507070036 | 0 | 0.0 | 0.0 | 0.00 | 0.02 | 0.00 | 1016.8 | ||
| 20260507064546 | 0 | 0.0 | 0.0 | 0.00 | 0.02 | 0.00 | 1017.0 | ||
| 20260507063024 | 0 | 0.0 | 0.0 | 0.00 | 0.02 | 0.00 | 1017.1 | ||
| 20260507061519 | 0 | 0.0 | 0.0 | 0.00 | 0.02 | 0.00 | 1017.2 | ||
| 20260507060016 | 0 | 0.0 | 0.0 | 0.00 | 0.02 | 0.00 | 1017.5 | ||
| 20260507054510 | 0 | 0.0 | 0.0 | 0.00 | 0.02 | 0.00 | 1017.6 | ||
| 20260507053007 | 0 | 0.0 | 0.0 | 0.00 | 0.02 | 0.00 | 1017.7 | ||
| 20260507051502 | 0 | 0.0 | 0.0 | 0.00 | 0.02 | 0.00 | 1017.7 | ||
| 20260507050057 | 0 | 0.0 | 0.0 | 0.00 | 0.02 | 0.00 | 1017.9 | ||
| 20260507044557 | 76 | 107 | 0.9 | 2.6 | 0.00 | 0.03 | 0.00 | 81 | 1018.1 |
| 20260507043052 | 76 | 101 | 0.0 | 2.6 | 0.00 | 0.03 | 0.00 | 81 | 1018.3 |
| 20260507041550 | 76 | 77 | 0.9 | 3.5 | 0.00 | 0.03 | 0.00 | 81 | 1018.6 |
| 20260507040045 | 76 | 93 | 0.9 | 2.6 | 0.00 | 0.03 | 0.00 | 81 | 1018.8 |
| 20260507034545 | 77 | 92 | 0.9 | 4.3 | 0.00 | 0.03 | 0.03 | 81 | 1019.0 |
| 20260507033045 | 77 | 105 | 0.9 | 3.5 | 0.00 | 0.03 | 0.03 | 81 | 1019.1 |
| 20260507031545 | 77 | 77 | 0.9 | 2.6 | 0.00 | 0.03 | 0.03 | 81 | 1019.3 |
| 20260507030042 | 77 | 129 | 0.9 | 2.6 | 0.00 | 0.03 | 0.03 | 81 | 1019.3 |
| 20260507024543 | 77 | 101 | 0.0 | 2.6 | 0.00 | 0.04 | 0.03 | 81 | 1019.3 |
| 20260507023044 | 77 | 81 | 0.9 | 3.5 | 0.00 | 0.04 | 0.03 | 81 | 1019.3 |
| 20260507021544 | 77 | 88 | 0.9 | 3.5 | 0.00 | 0.04 | 0.03 | 81 | 1019.2 |
| 20260507020053 | 77 | 113 | 0.9 | 3.5 | 0.00 | 0.04 | 0.03 | 81 | 1019.1 |
| 20260507014546 | 77 | 115 | 0.9 | 4.3 | 0.00 | 0.04 | 0.03 | 80 | 1019.0 |
| 20260507013042 | 77 | 77 | 0.9 | 4.3 | 0.00 | 0.04 | 0.03 | 80 | 1018.9 |
| 20260507011541 | 77 | 87 | 0.9 | 3.5 | 0.00 | 0.04 | 0.03 | 80 | 1018.7 |
| 20260507010055 | 78 | 67 | 0.9 | 4.3 | 0.00 | 0.04 | 0.03 | 80 | 1018.5 |
| 20260507004538 | 77 | 128 | 0.9 | 3.5 | 0.00 | 0.04 | 0.03 | 80 | 1018.7 |
| 20260507003039 | 78 | 76 | 1.7 | 3.5 | 0.00 | 0.04 | 0.03 | 80 | 1018.5 |
| 20260507001536 | 78 | 72 | 0.9 | 4.3 | 0.00 | 0.04 | 0.03 | 79 | 1018.3 |
| 20260506234534 | 78 | 120 | 0.9 | 5.2 | 0.00 | 0.04 | 0.03 | 78 | 1018.0 |
| 20260506233034 | 78 | 103 | 0.9 | 3.5 | 0.00 | 0.04 | 0.03 | 78 | 1017.8 |
| 20260506231533 | 79 | 115 | 0.9 | 3.5 | 0.00 | 0.04 | 0.03 | 77 | 1017.7 |
| 20260506230036 | 79 | 136 | 0.9 | 3.5 | 0.00 | 0.04 | 0.03 | 75 | 1017.5 |
| 20260506224537 | 80 | 127 | 0.9 | 4.3 | 0.00 | 0.04 | 0.03 | 74 | 1017.3 |
| 20260506223031 | 80 | 115 | 2.6 | 7.0 | 0.00 | 0.04 | 0.03 | 74 | 1017.0 |
| 20260506221531 | 81 | 76 | 1.7 | 6.1 | 0.00 | 0.04 | 0.03 | 73 | 1016.8 |
| 20260506220036 | 81 | 90 | 3.5 | 8.7 | 0.00 | 0.04 | 0.03 | 71 | 1016.8 |
| 20260506214531 | 82 | 116 | 3.5 | 7.8 | 0.00 | 0.04 | 0.03 | 69 | 1016.9 |
| 20260506213029 | 82 | 61 | 4.3 | 9.6 | 0.00 | 0.04 | 0.03 | 69 | 1016.8 |
| 20260506211530 | 83 | 145 | 4.3 | 8.7 | 0.00 | 0.04 | 0.03 | 67 | 1016.6 |
| 20260506210031 | 83 | 86 | 3.5 | 10.4 | 0.00 | 0.04 | 0.03 | 66 | 1016.6 |
| 20260506204532 | 84 | 119 | 3.5 | 9.6 | 0.00 | 0.04 | 0.03 | 63 | 1016.6 |
| 20260506203025 | 85 | 125 | 4.3 | 8.7 | 0.00 | 0.04 | 0.03 | 59 | 1016.6 |
| 20260506201535 | 85 | 139 | 3.5 | 11.3 | 0.00 | 0.04 | 0.03 | 61 | 1016.6 |
| 20260506200023 | 86 | 98 | 3.5 | 9.6 | 0.00 | 0.04 | 0.03 | 58 | 1016.7 |
| 20260506194520 | 86 | 42 | 5.2 | 9.6 | 0.00 | 0.04 | 0.03 | 57 | 1016.8 |
| 20260506193024 | 87 | 79 | 5.2 | 10.4 | 0.00 | 0.04 | 0.03 | 56 | 1016.9 |
| 20260506191517 | 87 | 82 | 2.6 | 12.2 | 0.00 | 0.04 | 0.03 | 57 | 1016.8 |
| 20260506190023 | 86 | 51 | 3.5 | 11.3 | 0.00 | 0.04 | 0.03 | 60 | 1017.0 |
| 20260506184519 | 86 | 59 | 3.5 | 11.3 | 0.00 | 0.04 | 0.03 | 62 | 1017.2 |
| 20260506183010 | 86 | 79 | 3.5 | 8.7 | 0.00 | 0.04 | 0.03 | 61 | 1017.2 |
| 20260506181507 | 84 | 62 | 6.1 | 9.6 | 0.00 | 0.04 | 0.03 | 63 | 1017.4 |
| 20260506180010 | 84 | 68 | 2.6 | 11.3 | 0.00 | 0.04 | 0.03 | 72 | 1017.5 |
| 20260506174514 | 84 | 68 | 3.5 | 10.4 | 0.00 | 0.04 | 0.03 | 70 | 1017.7 |
| 20260506173005 | 83 | 73 | 2.6 | 11.3 | 0.00 | 0.04 | 0.03 | 71 | 1017.8 |
| 20260506171504 | 86 | 95 | 2.6 | 8.7 | 0.00 | 0.04 | 0.03 | 67 | 1017.9 |
| 20260506170003 | 86 | 84 | 2.6 | 9.6 | 0.00 | 0.04 | 0.03 | 67 | 1018.2 |
| 20260506164600 | 85 | 92 | 5.2 | 11.3 | 0.00 | 0.04 | 0.03 | 68 | 1018.4 |
| 20260506163108 | 84 | 129 | 2.6 | 11.3 | 0.00 | 0.04 | 0.03 | 73 | 1018.6 |
| 20260506161557 | 84 | 111 | 4.3 | 10.4 | 0.00 | 0.04 | 0.03 | 72 | 1018.8 |
| 20260506160108 | 84 | 75 | 2.6 | 10.4 | 0.00 | 0.04 | 0.03 | 72 | 1018.8 |
| 20260506154554 | 85 | 114 | 2.6 | 9.6 | 0.00 | 0.04 | 0.03 | 71 | 1018.8 |
| 20260506153053 | 83 | 178 | 1.7 | 6.1 | 0.02 | 0.04 | 0.03 | 73 | 1019.0 |
| 20260506151556 | 83 | 74 | 1.7 | 7.8 | 0.02 | 0.04 | 0.03 | 73 | 1019.2 |
| 20260506150055 | 83 | 131 | 2.6 | 10.4 | 0.02 | 0.04 | 0.03 | 75 | 1019.2 |
| 20260506144600 | 81 | 97 | 3.5 | 8.7 | 0.02 | 0.04 | 0.03 | 79 | 1019.4 |
| 20260506143051 | 82 | 141 | 2.6 | 9.6 | 0.00 | 0.02 | 0.01 | 75 | 1019.4 |
| 20260506141550 | 83 | 96 | 5.2 | 11.3 | 0.00 | 0.02 | 0.01 | 72 | 1019.5 |
| 20260506140048 | 84 | 79 | 3.5 | 13.0 | 0.00 | 0.02 | 0.01 | 71 | 1019.4 |
| 20260506134547 | 84 | 104 | 4.3 | 10.4 | 0.00 | 0.03 | 0.01 | 69 | 1019.4 |
| 20260506133046 | 84 | 71 | 6.1 | 13.0 | 0.00 | 0.03 | 0.01 | 70 | 1019.4 |
| 20260506131552 | 85 | 73 | 3.5 | 9.6 | 0.00 | 0.03 | 0.01 | 70 | 1019.4 |
| 20260506130043 | 84 | 27 | 5.2 | 13.0 | 0.00 | 0.03 | 0.01 | 71 | 1019.2 |
| 20260506124539 | 84 | 78 | 4.3 | 11.3 | 0.00 | 0.03 | 0.01 | 71 | 1019.2 |
| 20260506123036 | 84 | 57 | 5.2 | 9.6 | 0.00 | 0.03 | 0.01 | 72 | 1019.4 |
| 20260506121532 | 83 | 96 | 5.2 | 10.4 | 0.00 | 0.03 | 0.01 | 74 | 1019.1 |
| 20260506120032 | 83 | 125 | 1.7 | 9.6 | 0.00 | 0.03 | 0.01 | 74 | 1019.0 |
| 20260506114536 | 82 | 57 | 2.6 | 8.7 | 0.00 | 0.03 | 0.01 | 77 | 1018.9 |
| 20260506113026 | 82 | 101 | 3.5 | 6.1 | 0.00 | 0.03 | 0.01 | 77 | 1018.7 |
| 20260506111521 | 80 | 68 | 2.6 | 6.1 | 0.00 | 0.03 | 0.01 | 81 | 1018.7 |
| 20260506110024 | 80 | 58 | 3.5 | 7.0 | 0.00 | 0.03 | 0.01 | 81 | 1018.6 |
| 20260506104516 | 79 | 118 | 1.7 | 3.5 | 0.00 | 0.03 | 0.01 | 83 | 1018.5 |
| 20260506103013 | 78 | 118 | 1.7 | 3.5 | 0.00 | 0.03 | 0.01 | 85 | 1018.3 |
| 20260506101508 | 0 | 0.0 | 0.0 | 0.00 | 0.03 | 0.01 | 1018.3 | ||
| 20260506100007 | 0 | 0.0 | 0.0 | 0.00 | 0.03 | 0.01 | 1018.2 | ||
| 20260506094502 | 0 | 0.0 | 0.0 | 0.00 | 0.03 | 0.01 | 1018.1 | ||
| 20260506093059 | 0 | 0.0 | 0.0 | 0.00 | 0.03 | 0.01 | 1017.8 | ||
| 20260506091555 | 0 | 0.0 | 0.0 | 0.00 | 0.03 | 0.01 | 1017.9 | ||
| 20260506090048 | 0 | 0.0 | 0.0 | 0.00 | 0.03 | 0.01 | 1017.7 | ||
| 20260506084544 | 0 | 0.0 | 0.0 | 0.00 | 0.03 | 0.01 | 1017.6 | ||
| 20260506083039 | 0 | 0.0 | 0.0 | 0.00 | 0.03 | 0.01 | 1017.4 |